Location: São Paulo
(23.5507°S, 46.6334°W)
Time: 07:02:00
(UTC-03:00)

Transit 4A - Pass Details

Date: 16 February 2026
Orbit: 864 x 977 km, 66.8° (Epoch: 11 March)

Event Time Altitude Azimuth Distance (km) Brightness Sun altitude
Rises 16:57:50 0° 287° (WNW) 3,665 12.2 23.6°
Reaches altitude 10° 17:02:23 10° 258° (WSW) 2,713 12.3 22.6°
Maximum altitude 17:04:42 12° 236° (SW) 2,557 11.4 22.0°
Drops below altitude 10° 17:07:02 10° 214° (SW) 2,700 11.0 21.5°
Sets 17:11:34 0° 184° (S) 3,626 11.1 20.5°
